Location: Miss�
(46.9484°N, 0.1922°W)
Time: 08:19:13
(UTC+00:00)

Helios 1A Rocket - Pass Details

Date: 02 March 2021
Orbit: 563 x 585 km, 98.3° (Epoch: 12 April)

Event Time Altitude Azimuth Distance (km) Brightness Sun altitude
Rises 19:10:34 0° 171° (S) 2,769 6.3 -14.9°
Reaches altitude 10° 19:12:44 10° 174° (S) 1,872 5.4 -15.2°
Maximum altitude 19:16:46 67° 258° (WSW) 623 3.3 -15.9°
Drops below altitude 10° 19:20:48 10° 341° (NNW) 1,876 5.9 -16.6°
Sets 19:22:58 0° 344° (NNW) 2,775 6.7 -17.0°
